Home > Time Zones > World Clock > Weather > U.S.A. > Gary > Past weeks

Flag for U.S.A. Weather past 2 weeks in Gary, Indiana, U.S.A.

Now
66 °F

Sunny.


Feels Like: 66 °F
Forecast: 60 / 79 °F
Wind: 6 mph from Northeast

Location: Lansing Municipal Airport

Current Time: Jul 30, 2014 at 8:24:57 PM

Latest Report: Jul 30, 2014 at 7:55 PM


Visibility: 10 mi

Pressure: 30.02 "Hg

Humidity: 72%

Dew point: 57 °F

Location of GaryLocation

Historic Weather in Gary — Graph

°F

Gary temperature yesterday

Maximum temperature yesterday: 78 °F (at 2:55 PM)
Minimum temperature yesterday: 52 °F (at 5:55 AM)
Average temperature yesterday: 65 °F

Past Weeks' High & Low Weather Summary

 TemperatureHumidityPressure
High86 °F (Jul 27, 1:55 PM)96% (Jul 27, 5:55 AM)30.20 "Hg (Jul 27, 5:55 AM)
Low51 °F (Jul 17, 4:55 AM)32% (Jul 27, 1:55 PM)29.71 "Hg (Jul 27, 12:55 PM)
Average68 °F69%30.03 "Hg
* Reported Jul 15 6:15 PM — Jul 30 6:55 PM, Gary, Weather by CustomWeather, © 2014

Note: Actual official high and low records may vary slightly from our data, if they occured in-between our weather recording intervals... More about our weather records

Advertising

Gary weather history for previous 24 hours

 ConditionsComfort  
Time TempWeatherWind HumidityBarometerVisibility
6:55 PM
Jul 30
69 °FSunny.6 mph70%30.01 "Hg7 mi
6:35 PM70 °FSunny.6 mph67%30.01 "Hg10 mi
6:15 PM70 °FSunny.6 mph67%30.01 "Hg10 mi
5:55 PM70 °FSunny.7 mph69%30.01 "Hg7 mi
5:35 PM71 °FSunny.9 mph66%30.01 "Hg7 mi
5:15 PM71 °FScattered clouds.8 mph67%30.02 "Hg10 mi
4:55 PM70 °FScattered clouds.10 mph67%30.02 "Hg10 mi
4:35 PM72 °FScattered clouds.10 mph65%30.02 "Hg10 mi
4:15 PM74 °FSunny.9 mph62%30.01 "Hg10 mi
3:55 PM75 °FSunny.9 mph59%30.02 "Hg10 mi
3:35 PM76 °FScattered clouds.6 mph57%30.02 "Hg10 mi
3:15 PM75 °FBroken clouds.8 mph55%30.01 "Hg10 mi
2:55 PM80 °FPartly sunny.9 mph39%30.01 "Hg10 mi
2:15 PM76 °FBroken clouds.6 mph44%30.02 "Hg10 mi
1:55 PM78 °FBroken clouds.6 mph41%30.02 "Hg10 mi
1:35 PM78 °FScattered clouds.6 mph46%30.02 "Hg10 mi
12:55 PM77 °FScattered clouds.9 mph48%30.03 "Hg10 mi
12:35 PM76 °FScattered clouds.8 mph48%30.04 "Hg10 mi
12:15 PM76 °FScattered clouds.6 mph49%30.04 "Hg10 mi
11:55 AM75 °FSunny.7 mph50%30.05 "Hg10 mi
11:15 AM74 °FScattered clouds.3 mph55%30.05 "Hg10 mi
10:55 AM73 °FSunny.7 mph55%30.05 "Hg10 mi
10:15 AM72 °FSunny.6 mph55%30.05 "Hg10 mi
9:55 AM72 °FSunny.5 mph54%30.05 "Hg10 mi
9:35 AM71 °FSunny.6 mph59%30.05 "Hg10 mi
9:15 AM70 °FScattered clouds.6 mph61%30.05 "Hg10 mi
8:55 AM69 °FSunny.5 mph64%30.05 "Hg10 mi
8:35 AM67 °FSunny.5 mph69%30.04 "Hg10 mi
8:15 AM65 °FSunny.3 mph72%30.04 "Hg10 mi
7:55 AM63 °FSunny.No wind79%30.04 "Hg10 mi
7:35 AM62 °FSunny.No wind87%30.04 "Hg10 mi
7:15 AM61 °FSunny.No wind89%30.03 "Hg10 mi
6:55 AM60 °FSunny.No wind88%30.03 "Hg10 mi
6:35 AM59 °FSunny.No wind89%30.04 "Hg10 mi
6:15 AM58 °FSunny.No wind91%30.03 "Hg10 mi
5:55 AM58 °FSunny.No wind90%30.03 "Hg10 mi
5:35 AM58 °FClear.5 mph88%30.02 "Hg10 mi
5:15 AM58 °FPassing clouds.3 mph89%30.02 "Hg10 mi
4:55 AM57 °FPassing clouds.No wind91%30.02 "Hg10 mi
4:35 AM56 °FPassing clouds.No wind93%30.01 "Hg10 mi
4:15 AM55 °FPassing clouds.No wind92%30.01 "Hg7 mi
3:55 AM55 °FClear.No wind90%30.01 "Hg10 mi
3:35 AM56 °FClear.No wind89%30.01 "Hg10 mi
3:15 AM58 °FClear.3 mph85%30.01 "Hg10 mi
2:55 AM58 °FClear.3 mph87%30.01 "Hg10 mi
2:35 AM56 °FClear.No wind90%30.01 "Hg10 mi
2:15 AM58 °FClear.No wind88%30.01 "Hg10 mi
1:55 AM59 °FClear.3 mph89%30.01 "Hg10 mi
1:35 AM58 °FClear.No wind89%30.01 "Hg10 mi
1:15 AM58 °FClear.No wind85%30.01 "Hg10 mi
12:55 AM60 °FPassing clouds.No wind80%30.01 "Hg10 mi
12:15 AM64 °FClear.3 mph74%30.02 "Hg10 mi
11:55 PM
Jul 29
65 °FClear.6 mph70%30.02 "Hg10 mi
11:15 PM63 °FPartly cloudy.10 mph85%30.02 "Hg10 mi
10:55 PM59 °FClear.No wind89%30.01 "Hg10 mi
10:35 PM61 °FClear.No wind83%30.01 "Hg10 mi
10:15 PM62 °FClear.No wind81%30.01 "Hg10 mi
9:55 PM62 °FClear.3 mph79%30.02 "Hg10 mi
9:35 PM64 °FPassing clouds.No wind78%30.02 "Hg10 mi
9:15 PM62 °FPartly cloudy.No wind83%30.01 "Hg10 mi
8:55 PM62 °FPartly cloudy.3 mph80%30.01 "Hg10 mi
8:15 PM67 °FClear.5 mph66%30.01 "Hg10 mi
Weather by CustomWeather, © 2014

See weather overviewHow to use our weather pages